Airfield :







YOU CAN JOIN US ON...

 
LOGIN :

Register | Disclaimer

   EN    FR    IT 

 









Legend :    VFR   Marginal VFR   IFR   Intensive IFR   Very Intensive IFR
Visi :
Ceiling :
>= 8 km
>= 3000ft
5 to 8 km
1000 to 3000 ft
1500m to 5 km
500 to 1000 ft
800 to 1500m
200 to 500 ft
< 800m
< 200 ft
Symbols :   Thunderstorms  Fog  Heavy snow  Heavy precipitations  Wind > 20 kt







- Airport Elevation : 76 ft
- IATA code : EGS


BIEG - Egilsstaðir

CURRENT METAR :
  • 210400Z 36007KT 9999 OVC004 05/04 Q1020 RERA

EXPIRED METARs :
  • 210300Z 36008KT 9999 -RA OVC004 05/04 Q1020
  • 210200Z 36010KT 9999 -DZ OVC004 05/04 Q1019

TAF TAF BIEG
Valid from the 21 at 03:00 until the 22 at 03:00 UTC


210101Z 2103/2203 36010KT 9999 -DZ BR BKN007 OVC012 TX10/2115Z TN04/2105Z
TEMPO 2103/2109 2000 DZ BR OVC003
BECMG 2111/2113 BKN020 OVC030
No reported NOTAMs for that airfield.



MET'MAP, your aeronautical weather chart ! - Copyright ORBIFLY December 2007 - Disclaimer

ORBIFLY MET'MAP TEAM :

Programming & Development : Alexandra Zaïnal
Concept & Development : Baudouin d'Aumeries
Co-Development & Prog : Marc-Olivier Méhu
Technical & hardware support : Manuel Goepfert

Contact : metmap@orbifly.com




SOURCES & CREDITS :

   NOAA